| time (UTC) | temp F | wind direction | speed knots | gust knots | rain 1hr in | rain 24hr in | rain mn in | humidity % | barometer mb |
| 20260906183712 | 89 | 119 | 2.6 | 7.0 | 0.00 | 0.00 | 0.00 | 65 | 1014.7 |
| 20260906183211 | 88 | 157 | 3.5 | 7.0 | 0.00 | 0.00 | 0.00 | 64 | 1014.8 |
| 20260906182711 | 88 | 196 | 1.7 | 7.8 | 0.00 | 0.00 | 0.00 | 66 | 1015.0 |
| 20260906182211 | 88 | 196 | 4.3 | 7.8 | 0.00 | 0.00 | 0.00 | 66 | 1015.1 |
| 20260906181710 | 88 | 215 | 4.3 | 7.8 | 0.00 | 0.00 | 0.00 | 68 | 1015.0 |
| 20260906181210 | 89 | 221 | 5.2 | 7.8 | 0.00 | 0.00 | 0.00 | 67 | 1014.9 |
| 20260906180710 | 89 | 217 | 3.5 | 7.0 | 0.00 | 0.00 | 0.00 | 67 | 1014.9 |
| 20260906180210 | 88 | 64 | 2.6 | 7.0 | 0.00 | 0.00 | 0.00 | 68 | 1015.1 |
| 20260906175711 | 88 | 147 | 2.6 | 8.7 | 0.00 | 0.00 | 0.00 | 74 | 1015.2 |
| 20260906175209 | 87 | 200 | 4.3 | 9.6 | 0.00 | 0.00 | 0.00 | 72 | 1015.2 |
| 20260906174708 | 87 | 165 | 3.5 | 9.6 | 0.00 | 0.00 | 0.00 | 71 | 1015.2 |
| 20260906174208 | 87 | 282 | 2.6 | 9.6 | 0.00 | 0.00 | 0.00 | 72 | 1015.3 |
| 20260906173708 | 87 | 137 | 5.2 | 10.4 | 0.00 | 0.00 | 0.00 | 71 | 1015.4 |
| 20260906173205 | 87 | 72 | 3.5 | 10.4 | 0.00 | 0.00 | 0.00 | 73 | 1015.3 |
| 20260906172705 | 86 | 110 | 3.5 | 9.6 | 0.00 | 0.00 | 0.00 | 75 | 1015.3 |
| 20260906172205 | 85 | 213 | 4.3 | 9.6 | 0.00 | 0.00 | 0.00 | 76 | 1015.4 |
| 20260906171704 | 85 | 177 | 1.7 | 8.7 | 0.00 | 0.00 | 0.00 | 78 | 1015.5 |
| 20260906171205 | 84 | 221 | 3.5 | 8.7 | 0.00 | 0.00 | 0.00 | 77 | 1015.7 |
| 20260906170705 | 84 | 178 | 3.5 | 7.8 | 0.00 | 0.00 | 0.00 | 77 | 1015.8 |
| 20260906170205 | 84 | 208 | 2.6 | 7.8 | 0.00 | 0.00 | 0.00 | 79 | 1015.9 |
| 20260906165704 | 83 | 203 | 2.6 | 7.8 | 0.00 | 0.00 | 0.00 | 80 | 1015.8 |
| 20260906165205 | 83 | 185 | 1.7 | 7.0 | 0.00 | 0.00 | 0.00 | 81 | 1015.7 |
| 20260906164704 | 82 | 132 | 2.6 | 7.8 | 0.00 | 0.00 | 0.00 | 82 | 1015.8 |
| 20260906163704 | 81 | 133 | 2.6 | 6.1 | 0.00 | 0.00 | 0.00 | 84 | 1016.0 |
| 20260906163204 | 81 | 146 | 2.6 | 6.1 | 0.00 | 0.00 | 0.00 | 84 | 1016.0 |
| 20260906162704 | 80 | 164 | 2.6 | 4.3 | 0.00 | 0.00 | 0.00 | 84 | 1015.8 |
| 20260906162203 | 80 | 168 | 1.7 | 4.3 | 0.00 | 0.00 | 0.00 | 84 | 1015.9 |
| 20260906161204 | 80 | 128 | 1.7 | 3.5 | 0.00 | 0.00 | 0.00 | 83 | 1016.2 |
| 20260906160204 | 80 | 178 | 1.7 | 2.6 | 0.00 | 0.00 | 0.00 | 82 | 1016.3 |
| 20260906155703 | 80 | 110 | 0.9 | 2.6 | 0.00 | 0.00 | 0.00 | 81 | 1016.5 |
| 20260906155203 | 80 | 120 | 0.9 | 3.5 | 0.00 | 0.00 | 0.00 | 80 | 1016.3 |
| 20260906154703 | 80 | 239 | 0.9 | 3.5 | 0.00 | 0.00 | 0.00 | 79 | 1016.6 |
| 20260906154202 | 80 | 212 | 1.7 | 2.6 | 0.00 | 0.00 | 0.00 | 79 | 1016.6 |
| 20260906153703 | 80 | 120 | 0.9 | 2.6 | 0.00 | 0.00 | 0.00 | 78 | 1016.3 |
| 20260906153203 | 80 | 196 | 1.7 | 5.2 | 0.00 | 0.00 | 0.00 | 79 | 1016.2 |
| 20260906152702 | 80 | 195 | 2.6 | 5.2 | 0.00 | 0.00 | 0.00 | 79 | 1016.2 |
| 20260906152202 | 80 | 219 | 2.6 | 5.2 | 0.00 | 0.00 | 0.00 | 81 | 1016.3 |
| 20260906151702 | 80 | 183 | 1.7 | 5.2 | 0.00 | 0.00 | 0.00 | 82 | 1016.5 |
| 20260906151202 | 80 | 273 | 1.7 | 12.2 | 0.00 | 0.00 | 0.00 | 82 | 1016.7 |
| 20260906150702 | 80 | 144 | 4.3 | 12.2 | 0.00 | 0.00 | 0.00 | 81 | 1016.7 |
| 20260906150201 | 81 | 261 | 5.2 | 9.6 | 0.00 | 0.00 | 0.00 | 82 | 1016.9 |
| 20260906145202 | 80 | 146 | 2.6 | 7.0 | 0.00 | 0.00 | 0.00 | 82 | 1015.8 |
| 20260906144701 | 80 | 165 | 2.6 | 8.7 | 0.00 | 0.00 | 0.00 | 82 | 1015.7 |
| 20260906144201 | 80 | 171 | 5.2 | 8.7 | 0.00 | 0.00 | 0.00 | 82 | 1015.5 |
| 20260906143701 | 80 | 105 | 4.3 | 7.8 | 0.00 | 0.00 | 0.00 | 82 | 1015.6 |
| 20260906142700 | 80 | 168 | 6.1 | 9.6 | 0.00 | 0.00 | 0.00 | 82 | 1015.6 |
| 20260906141202 | 80 | 141 | 4.3 | 8.7 | 0.00 | 0.00 | 0.00 | 82 | 1015.6 |
| 20260906140700 | 80 | 120 | 3.5 | 8.7 | 0.00 | 0.00 | 0.00 | 82 | 1015.6 |
| 20260906140159 | 80 | 156 | 2.6 | 8.7 | 0.00 | 0.00 | 0.00 | 82 | 1015.7 |
| 20260906135159 | 80 | 138 | 2.6 | 7.8 | 0.00 | 0.00 | 0.00 | 81 | 1015.9 |
| 20260906134659 | 80 | 160 | 3.5 | 7.8 | 0.00 | 0.00 | 0.00 | 81 | 1015.9 |
| 20260906134159 | 80 | 128 | 3.5 | 8.7 | 0.00 | 0.00 | 0.00 | 81 | 1015.8 |
| 20260906133659 | 81 | 183 | 4.3 | 10.4 | 0.00 | 0.00 | 0.00 | 80 | 1015.7 |
| 20260906133158 | 81 | 139 | 4.3 | 10.4 | 0.00 | 0.00 | 0.00 | 81 | 1015.7 |
| 20260906132658 | 81 | 137 | 2.6 | 7.8 | 0.00 | 0.00 | 0.00 | 81 | 1015.8 |
| 20260906132157 | 81 | 178 | 2.6 | 7.0 | 0.00 | 0.00 | 0.00 | 82 | 1015.8 |
| 20260906131657 | 80 | 108 | 2.6 | 7.0 | 0.00 | 0.00 | 0.00 | 82 | 1015.7 |
| 20260906131159 | 80 | 130 | 2.6 | 7.0 | 0.00 | 0.00 | 0.00 | 83 | 1015.6 |
| 20260906130657 | 80 | 128 | 1.7 | 6.1 | 0.00 | 0.00 | 0.00 | 84 | 1015.6 |
| 20260906130156 | 79 | 117 | 1.7 | 7.8 | 0.00 | 0.00 | 0.00 | 84 | 1015.6 |
| 20260906125657 | 79 | 229 | 3.5 | 7.8 | 0.00 | 0.00 | 0.00 | 84 | 1015.7 |
| 20260906125156 | 79 | 115 | 1.7 | 6.1 | 0.00 | 0.00 | 0.00 | 84 | 1015.7 |
| 20260906124656 | 79 | 129 | 2.6 | 7.0 | 0.00 | 0.00 | 0.00 | 84 | 1015.7 |
| 20260906124156 | 78 | 115 | 3.5 | 7.8 | 0.00 | 0.00 | 0.00 | 84 | 1015.5 |
| 20260906123656 | 78 | 137 | 2.6 | 7.8 | 0.00 | 0.00 | 0.00 | 85 | 1015.4 |
| 20260906123155 | 78 | 144 | 1.7 | 6.1 | 0.00 | 0.00 | 0.00 | 85 | 1015.4 |
| 20260906122155 | 78 | 133 | 1.7 | 5.2 | 0.00 | 0.00 | 0.00 | 85 | 1015.2 |
| 20260906121657 | 78 | 131 | 1.7 | 6.1 | 0.00 | 0.00 | 0.00 | 85 | 1015.3 |
| 20260906121154 | 78 | 123 | 1.7 | 7.0 | 0.00 | 0.00 | 0.00 | 85 | 1015.2 |
| 20260906120655 | 78 | 108 | 2.6 | 7.0 | 0.00 | 0.00 | 0.00 | 85 | 1015.1 |
| 20260906120155 | 78 | 137 | 1.7 | 5.2 | 0.00 | 0.00 | 0.00 | 85 | 1015.1 |
| 20260906115655 | 78 | 124 | 3.5 | 5.2 | 0.00 | 0.00 | 0.00 | 85 | 1014.9 |
| 20260906115155 | 78 | 137 | 2.6 | 6.1 | 0.00 | 0.00 | 0.00 | 85 | 1014.9 |
| 20260906114655 | 78 | 113 | 1.7 | 6.1 | 0.00 | 0.00 | 0.00 | 85 | 1014.8 |
| 20260906114154 | 78 | 117 | 1.7 | 5.2 | 0.00 | 0.00 | 0.00 | 85 | 1014.7 |
| 20260906113654 | 78 | 133 | 1.7 | 4.3 | 0.00 | 0.00 | 0.00 | 85 | 1014.7 |
| 20260906113153 | 78 | 117 | 1.7 | 5.2 | 0.00 | 0.00 | 0.00 | 85 | 1014.7 |
| 20260906112653 | 78 | 126 | 1.7 | 6.1 | 0.00 | 0.00 | 0.00 | 85 | 1014.6 |
| 20260906111654 | 78 | 178 | 2.6 | 6.1 | 0.00 | 0.00 | 0.00 | 85 | 1014.7 |
| 20260906111153 | 78 | 144 | 2.6 | 6.1 | 0.00 | 0.00 | 0.00 | 85 | 1014.7 |
| 20260906110653 | 78 | 170 | 1.7 | 4.3 | 0.00 | 0.00 | 0.00 | 85 | 1014.8 |
| 20260906110152 | 78 | 178 | 0.9 | 3.5 | 0.00 | 0.00 | 0.00 | 85 | 1014.8 |
| 20260906105648 | 78 | 67 | 0.9 | 4.3 | 0.00 | 0.00 | 0.00 | 84 | 1014.8 |
| 20260906105147 | 78 | 102 | 1.7 | 4.3 | 0.00 | 0.00 | 0.00 | 84 | 1014.7 |
| 20260906104646 | 78 | 137 | 1.7 | 2.6 | 0.00 | 0.00 | 0.00 | 84 | 1014.8 |
| 20260906104147 | 78 | 128 | 0.9 | 2.6 | 0.00 | 0.00 | 0.00 | 84 | 1014.7 |
| 20260906103647 | 78 | 196 | 0.9 | 3.5 | 0.00 | 0.00 | 0.00 | 84 | 1014.6 |
| 20260906102646 | 78 | 136 | 1.7 | 5.2 | 0.00 | 0.00 | 0.00 | 84 | 1014.5 |
| 20260906102147 | 78 | 130 | 1.7 | 5.2 | 0.00 | 0.00 | 0.00 | 84 | 1014.4 |
| 20260906101145 | 78 | 137 | 1.7 | 3.5 | 0.00 | 0.00 | 0.00 | 83 | 1014.5 |
| 20260906100646 | 78 | 137 | 0.9 | 4.3 | 0.00 | 0.00 | 0.00 | 84 | 1014.4 |
| 20260906100145 | 78 | 158 | 1.7 | 5.2 | 0.00 | 0.00 | 0.00 | 84 | 1014.5 |
| 20260906095645 | 78 | 148 | 1.7 | 5.2 | 0.00 | 0.00 | 0.00 | 84 | 1014.4 |
| 20260906095145 | 78 | 144 | 1.7 | 6.1 | 0.00 | 0.00 | 0.00 | 84 | 1014.3 |
| 20260906093646 | 78 | 142 | 1.7 | 3.5 | 0.00 | 0.00 | 0.00 | 85 | 1014.4 |
| 20260906093145 | 78 | 129 | 0.9 | 3.5 | 0.00 | 0.00 | 0.00 | 84 | 1014.5 |
| 20260906092645 | 78 | 178 | 0.0 | 1.7 | 0.00 | 0.00 | 0.00 | 84 | 1014.5 |
| 20260906091634 | 78 | 162 | 0.9 | 3.5 | 0.00 | 0.00 | 0.00 | 84 | 1014.3 |
| 20260906091135 | 78 | 137 | 1.7 | 3.5 | 0.00 | 0.00 | 0.00 | 83 | 1014.3 |
| 20260906090135 | 78 | 178 | 0.9 | 2.6 | 0.00 | 0.00 | 0.00 | 83 | 1014.4 |
| 20260906085134 | 78 | 141 | 1.7 | 2.6 | 0.00 | 0.00 | 0.00 | 82 | 1014.5 |
| 20260906084133 | 79 | 144 | 1.7 | 2.6 | 0.00 | 0.00 | 0.00 | 82 | 1014.5 |
| 20260906083633 | 79 | 123 | 0.9 | 2.6 | 0.00 | 0.00 | 0.00 | 82 | 1014.4 |
| 20260906083134 | 79 | 103 | 1.7 | 3.5 | 0.00 | 0.00 | 0.00 | 81 | 1014.4 |
| 20260906082633 | 79 | 131 | 1.7 | 3.5 | 0.00 | 0.00 | 0.00 | 81 | 1014.4 |
| 20260906082132 | 79 | 132 | 1.7 | 3.5 | 0.00 | 0.00 | 0.00 | 81 | 1014.3 |
| 20260906081132 | 79 | 131 | 2.6 | 4.3 | 0.00 | 0.00 | 0.00 | 80 | 1014.2 |
| 20260906080631 | 80 | 131 | 1.7 | 4.3 | 0.00 | 0.00 | 0.00 | 80 | 1014.2 |
| 20260906080131 | 80 | 61 | 1.7 | 4.3 | 0.00 | 0.00 | 0.00 | 80 | 1014.2 |
| 20260906075630 | 80 | 128 | 1.7 | 4.3 | 0.00 | 0.00 | 0.00 | 80 | 1014.2 |
| 20260906075130 | 80 | 137 | 2.6 | 4.3 | 0.00 | 0.00 | 0.00 | 79 | 1014.2 |
| 20260906074630 | 80 | 128 | 1.7 | 6.1 | 0.00 | 0.00 | 0.00 | 80 | 1014.1 |
| 20260906074130 | 80 | 144 | 1.7 | 6.1 | 0.00 | 0.00 | 0.00 | 80 | 1014.0 |
| 20260906073630 | 80 | 108 | 1.7 | 5.2 | 0.00 | 0.00 | 0.00 | 80 | 1014.1 |
| 20260906073131 | 80 | 137 | 1.7 | 6.1 | 0.00 | 0.00 | 0.00 | 80 | 1013.9 |
| 20260906072629 | 80 | 117 | 1.7 | 6.1 | 0.00 | 0.00 | 0.00 | 80 | 1013.9 |
| 20260906072129 | 80 | 150 | 2.6 | 6.1 | 0.00 | 0.00 | 0.00 | 80 | 1013.9 |
| 20260906071129 | 80 | 124 | 2.6 | 6.1 | 0.00 | 0.00 | 0.00 | 80 | 1014.0 |
| 20260906070629 | 80 | 126 | 2.6 | 6.1 | 0.00 | 0.00 | 0.00 | 80 | 1014.1 |
| 20260906070129 | 80 | 117 | 2.6 | 6.1 | 0.00 | 0.00 | 0.00 | 80 | 1014.1 |
| 20260906065629 | 80 | 205 | 2.6 | 6.1 | 0.00 | 0.00 | 0.00 | 80 | 1014.2 |
| 20260906065127 | 81 | 160 | 2.6 | 6.1 | 0.00 | 0.00 | 0.00 | 80 | 1014.3 |
| 20260906064128 | 81 | 178 | 2.6 | 6.1 | 0.00 | 0.00 | 0.00 | 80 | 1014.3 |
| 20260906063628 | 81 | 205 | 2.6 | 6.1 | 0.00 | 0.00 | 0.00 | 79 | 1014.3 |
| 20260906063129 | 81 | 123 | 1.7 | 6.1 | 0.00 | 0.00 | 0.00 | 79 | 1014.3 |
| 20260906062627 | 81 | 170 | 3.5 | 6.1 | 0.00 | 0.00 | 0.00 | 79 | 1014.4 |
| 20260906062127 | 81 | 128 | 2.6 | 6.1 | 0.00 | 0.00 | 0.00 | 79 | 1014.3 |
| 20260906061627 | 82 | 132 | 2.6 | 6.1 | 0.00 | 0.00 | 0.00 | 79 | 1014.5 |
| 20260906061127 | 82 | 131 | 1.7 | 5.2 | 0.00 | 0.00 | 0.00 | 79 | 1014.4 |
| 20260906060627 | 82 | 51 | 0.9 | 4.3 | 0.00 | 0.00 | 0.00 | 78 | 1014.4 |
| 20260906060127 | 82 | 153 | 1.7 | 4.3 | 0.00 | 0.00 | 0.00 | 78 | 1014.3 |
| 20260906055628 | 82 | 132 | 2.6 | 4.3 | 0.00 | 0.00 | 0.00 | 78 | 1014.4 |
| 20260906055126 | 82 | 162 | 1.7 | 6.1 | 0.00 | 0.00 | 0.00 | 78 | 1014.5 |
| 20260906054627 | 82 | 153 | 1.7 | 6.1 | 0.00 | 0.00 | 0.00 | 77 | 1014.4 |
| 20260906054127 | 82 | 162 | 1.7 | 6.1 | 0.00 | 0.00 | 0.00 | 77 | 1014.4 |
| 20260906053624 | 82 | 137 | 2.6 | 6.1 | 0.00 | 0.00 | 0.00 | 77 | 1014.4 |
| 20260906053126 | 82 | 137 | 0.9 | 8.7 | 0.00 | 0.00 | 0.00 | 77 | 1014.4 |
| 20260906052123 | 83 | 96 | 3.5 | 8.7 | 0.00 | 0.00 | 0.00 | 77 | 1014.3 |
| 20260906051624 | 83 | 116 | 3.5 | 9.6 | 0.00 | 0.00 | 0.00 | 77 | 1014.3 |
| 20260906051124 | 83 | 133 | 5.2 | 9.6 | 0.00 | 0.00 | 0.00 | 77 | 1014.2 |
| 20260906050623 | 83 | 105 | 4.3 | 8.7 | 0.00 | 0.00 | 0.00 | 76 | 1014.3 |
| 20260906050124 | 83 | 115 | 4.3 | 9.6 | 0.00 | 0.00 | 0.00 | 76 | 1014.3 |
| 20260906045623 | 83 | 113 | 4.3 | 9.6 | 0.00 | 0.00 | 0.00 | 76 | 1014.3 |
| 20260906045123 | 83 | 117 | 4.3 | 8.7 | 0.00 | 0.00 | 0.00 | 76 | 1014.3 |
| 20260906044623 | 83 | 93 | 5.2 | 9.6 | 0.00 | 0.00 | 0.00 | 76 | 1014.3 |
| 20260906043122 | 83 | 117 | 4.3 | 9.6 | 0.00 | 0.00 | 0.00 | 75 | 1014.3 |
| 20260906042623 | 83 | 178 | 4.3 | 9.6 | 0.00 | 0.00 | 0.00 | 75 | 1014.3 |
| 20260906042122 | 84 | 140 | 3.5 | 7.8 | 0.00 | 0.00 | 0.00 | 74 | 1014.4 |
| 20260906041622 | 84 | 141 | 3.5 | 7.8 | 0.00 | 0.00 | 0.00 | 74 | 1014.5 |
| 20260906041121 | 84 | 137 | 1.7 | 9.6 | 0.00 | 0.00 | 0.00 | 74 | 1014.6 |
| 20260906040621 | 84 | 119 | 4.3 | 9.6 | 0.00 | 0.00 | 0.00 | 75 | 1014.4 |
| 20260906040122 | 84 | 123 | 3.5 | 8.7 | 0.00 | 0.00 | 0.00 | 75 | 1014.3 |
| 20260906035122 | 84 | 123 | 3.5 | 7.0 | 0.00 | 0.00 | 0.00 | 75 | 1014.3 |
| 20260906034620 | 84 | 325 | 2.6 | 7.0 | 0.00 | 0.00 | 0.00 | 75 | 1014.4 |
| 20260906034123 | 84 | 139 | 2.6 | 7.0 | 0.00 | 0.00 | 0.00 | 75 | 1014.3 |
| 20260906033621 | 84 | 98 | 2.6 | 6.1 | 0.00 | 0.00 | 0.00 | 75 | 1014.3 |
| 20260906033121 | 84 | 126 | 1.7 | 6.1 | 0.00 | 0.00 | 0.00 | 75 | 1014.3 |
| 20260906031620 | 84 | 113 | 2.6 | 5.2 | 0.00 | 0.00 | 0.00 | 75 | 1014.2 |
| 20260906031120 | 85 | 137 | 2.6 | 5.2 | 0.00 | 0.00 | 0.00 | 75 | 1014.2 |
| 20260906030620 | 85 | 106 | 1.7 | 7.0 | 0.00 | 0.00 | 0.00 | 75 | 1014.1 |
| 20260906030120 | 85 | 126 | 2.6 | 7.0 | 0.00 | 0.00 | 0.00 | 74 | 1014.0 |
| 20260906025620 | 85 | 110 | 2.6 | 7.8 | 0.00 | 0.00 | 0.00 | 74 | 1014.0 |
| 20260906025119 | 85 | 121 | 3.5 | 8.7 | 0.00 | 0.00 | 0.00 | 74 | 1013.8 |
| 20260906024619 | 85 | 126 | 3.5 | 8.7 | 0.00 | 0.00 | 0.00 | 74 | 1013.8 |
| 20260906023119 | 85 | 108 | 5.2 | 8.7 | 0.00 | 0.00 | 0.00 | 74 | 1013.5 |
| 20260906022118 | 85 | 126 | 2.6 | 7.8 | 0.00 | 0.00 | 0.00 | 74 | 1013.6 |
| 20260906021618 | 85 | 123 | 3.5 | 7.8 | 0.00 | 0.00 | 0.00 | 73 | 1013.5 |
| 20260906021118 | 86 | 153 | 2.6 | 7.0 | 0.00 | 0.00 | 0.00 | 73 | 1013.4 |
| 20260906020618 | 86 | 115 | 1.7 | 6.1 | 0.00 | 0.00 | 0.00 | 73 | 1013.4 |
| 20260906020118 | 86 | 119 | 2.6 | 7.8 | 0.00 | 0.00 | 0.00 | 72 | 1013.3 |
| 20260906015618 | 86 | 61 | 3.5 | 7.8 | 0.00 | 0.00 | 0.00 | 72 | 1013.1 |
| 20260906015117 | 86 | 109 | 2.6 | 5.2 | 0.00 | 0.00 | 0.00 | 72 | 1013.0 |
| 20260906014617 | 86 | 93 | 1.7 | 6.1 | 0.00 | 0.00 | 0.00 | 72 | 1013.0 |
| 20260906014118 | 86 | 98 | 2.6 | 6.1 | 0.00 | 0.00 | 0.00 | 71 | 1013.0 |
| 20260906013617 | 86 | 117 | 3.5 | 6.1 | 0.00 | 0.00 | 0.00 | 71 | 1012.8 |
| 20260906013117 | 87 | 111 | 2.6 | 5.2 | 0.00 | 0.00 | 0.00 | 70 | 1012.7 |
| 20260906012116 | 87 | 134 | 1.7 | 6.1 | 0.00 | 0.00 | 0.00 | 69 | 1012.6 |
| 20260906011617 | 87 | 51 | 1.7 | 6.1 | 0.00 | 0.00 | 0.00 | 69 | 1012.6 |
| 20260906010615 | 88 | 137 | 2.6 | 6.1 | 0.00 | 0.00 | 0.00 | 68 | 1012.5 |
| 20260906005615 | 88 | 93 | 1.7 | 7.8 | 0.00 | 0.00 | 0.00 | 67 | 1012.5 |
| 20260906005115 | 88 | 99 | 5.2 | 9.6 | 0.00 | 0.00 | 0.00 | 67 | 1012.5 |
| 20260906004615 | 88 | 107 | 6.1 | 9.6 | 0.00 | 0.00 | 0.00 | 67 | 1012.4 |
| 20260906003114 | 89 | 132 | 2.6 | 9.6 | 0.00 | 0.00 | 0.00 | 65 | 1012.5 |
| 20260906002613 | 89 | 126 | 2.6 | 10.4 | 0.00 | 0.00 | 0.00 | 65 | 1012.6 |
| 20260906002113 | 89 | 115 | 5.2 | 10.4 | 0.00 | 0.00 | 0.00 | 64 | 1012.4 |
| 20260906001613 | 90 | 139 | 5.2 | 13.0 | 0.00 | 0.00 | 0.00 | 64 | 1012.3 |
| 20260906001112 | 90 | 97 | 7.0 | 13.0 | 0.00 | 0.00 | 0.00 | 63 | 1012.2 |
| 20260906000612 | 90 | 123 | 7.8 | 12.2 | 0.00 | 0.00 | 0.00 | 63 | 1012.2 |
| 20260906000112 | 91 | 102 | 6.1 | 11.3 | 0.00 | 0.00 | 0.00 | 63 | 1012.2 |
| 20260905235113 | 91 | 117 | 7.0 | 12.2 | 0.00 | 0.00 | 0.00 | 61 | 1012.1 |
| 20260905234612 | 92 | 121 | 3.5 | 9.6 | 0.00 | 0.00 | 0.00 | 61 | 1012.1 |
| 20260905234112 | 92 | 130 | 3.5 | 9.6 | 0.00 | 0.00 | 0.00 | 61 | 1012.2 |
| 20260905233611 | 92 | 149 | 3.5 | 8.7 | 0.00 | 0.00 | 0.00 | 61 | 1012.2 |
| 20260905233111 | 92 | 156 | 3.5 | 8.7 | 0.00 | 0.00 | 0.00 | 61 | 1012.2 |
| 20260905232611 | 92 | 123 | 5.2 | 10.4 | 0.00 | 0.00 | 0.00 | 60 | 1012.2 |
| 20260905231109 | 92 | 178 | 5.2 | 9.6 | 0.00 | 0.00 | 0.00 | 60 | 1012.3 |
| 20260905230610 | 92 | 129 | 5.2 | 9.6 | 0.00 | 0.00 | 0.00 | 60 | 1012.2 |
| 20260905230108 | 93 | 139 | 5.2 | 7.8 | 0.00 | 0.00 | 0.00 | 58 | 1012.2 |
| 20260905225605 | 93 | 209 | 2.6 | 9.6 | 0.00 | 0.00 | 0.00 | 57 | 1012.3 |
| 20260905225104 | 93 | 162 | 2.6 | 9.6 | 0.00 | 0.00 | 0.00 | 58 | 1012.2 |
| 20260905224602 | 93 | 139 | 2.6 | 9.6 | 0.00 | 0.00 | 0.00 | 58 | 1012.2 |
| 20260905224104 | 93 | 205 | 3.5 | 9.6 | 0.00 | 0.00 | 0.00 | 57 | 1012.2 |
| 20260905223601 | 93 | 237 | 4.3 | 8.7 | 0.00 | 0.00 | 0.00 | 56 | 1012.2 |
| 20260905223101 | 93 | 173 | 5.2 | 8.7 | 0.00 | 0.00 | 0.00 | 57 | 1012.2 |
| 20260905222601 | 93 | 184 | 3.5 | 8.7 | 0.00 | 0.00 | 0.00 | 57 | 1012.1 |
| 20260905222101 | 93 | 208 | 3.5 | 11.3 | 0.00 | 0.00 | 0.00 | 58 | 1012.0 |
| 20260905221600 | 93 | 151 | 5.2 | 11.3 | 0.00 | 0.00 | 0.00 | 57 | 1011.9 |
| 20260905221101 | 93 | 173 | 5.2 | 8.7 | 0.00 | 0.00 | 0.00 | 57 | 1011.8 |
| 20260905220600 | 92 | 137 | 2.6 | 8.7 | 0.00 | 0.00 | 0.00 | 59 | 1011.8 |
| 20260905220100 | 92 | 144 | 5.2 | 10.4 | 0.00 | 0.00 | 0.00 | 58 | 1011.8 |
| 20260905215600 | 92 | 163 | 4.3 | 14.8 | 0.00 | 0.00 | 0.00 | 58 | 1011.7 |
| 20260905215100 | 92 | 130 | 7.8 | 14.8 | 0.00 | 0.00 | 0.00 | 56 | 1011.8 |
| 20260905214600 | 92 | 132 | 6.1 | 11.3 | 0.00 | 0.00 | 0.00 | 56 | 1011.8 |
| 20260905214101 | 93 | 141 | 4.3 | 11.3 | 0.00 | 0.00 | 0.00 | 57 | 1011.9 |
| 20260905213600 | 92 | 144 | 4.3 | 11.3 | 0.00 | 0.00 | 0.00 | 58 | 1012.0 |
| 20260905213058 | 92 | 113 | 3.5 | 11.3 | 0.00 | 0.00 | 0.00 | 57 | 1012.2 |
| 20260905212558 | 92 | 155 | 4.3 | 12.2 | 0.00 | 0.00 | 0.00 | 56 | 1012.2 |
| 20260905212058 | 92 | 184 | 4.3 | 12.2 | 0.00 | 0.00 | 0.00 | 55 | 1012.2 |
| 20260905211558 | 92 | 130 | 6.1 | 11.3 | 0.00 | 0.00 | 0.00 | 55 | 1012.2 |
| 20260905210057 | 91 | 128 | 7.0 | 13.9 | 0.00 | 0.00 | 0.00 | 56 | 1012.5 |
| 20260905205057 | 91 | 131 | 7.0 | 11.3 | 0.00 | 0.00 | 0.00 | 56 | 1012.6 |
| 20260905204058 | 91 | 144 | 7.8 | 12.2 | 0.00 | 0.00 | 0.00 | 57 | 1012.8 |
| 20260905203556 | 91 | 133 | 8.7 | 12.2 | 0.00 | 0.00 | 0.00 | 56 | 1012.9 |
| 20260905203056 | 91 | 212 | 4.3 | 11.3 | 0.00 | 0.00 | 0.00 | 58 | 1013.0 |
| 20260905202556 | 90 | 40 | 6.1 | 12.2 | 0.00 | 0.00 | 0.00 | 57 | 1013.3 |
| 20260905202055 | 90 | 99 | 7.0 | 13.0 | 0.00 | 0.00 | 0.00 | 57 | 1013.3 |
| 20260905201556 | 90 | 123 | 7.0 | 13.0 | 0.00 | 0.00 | 0.00 | 56 | 1013.4 |
| 20260905201055 | 90 | 132 | 5.2 | 13.0 | 0.00 | 0.00 | 0.00 | 58 | 1013.6 |
| 20260905200055 | 90 | 133 | 7.0 | 13.9 | 0.00 | 0.00 | 0.00 | 58 | 1014.0 |
| 20260905195555 | 90 | 137 | 5.2 | 13.9 | 0.00 | 0.00 | 0.00 | 58 | 1014.2 |
| 20260905194554 | 90 | 128 | 5.2 | 9.6 | 0.00 | 0.00 | 0.00 | 58 | 1014.5 |
| 20260905194055 | 90 | 51 | 3.5 | 10.4 | 0.00 | 0.00 | 0.00 | 58 | 1014.7 |
| 20260905193554 | 90 | 123 | 5.2 | 10.4 | 0.00 | 0.00 | 0.00 | 59 | 1014.6 |
| 20260905193054 | 89 | 133 | 6.1 | 11.3 | 0.00 | 0.00 | 0.00 | 58 | 1014.7 |
| 20260905192554 | 89 | 38 | 5.2 | 11.3 | 0.00 | 0.00 | 0.00 | 56 | 1014.6 |
| 20260905192053 | 89 | 98 | 5.2 | 11.3 | 0.00 | 0.00 | 0.00 | 58 | 1014.5 |
| 20260905191554 | 89 | 110 | 5.2 | 10.4 | 0.00 | 0.00 | 0.00 | 59 | 1014.6 |
| 20260905191054 | 89 | 93 | 6.1 | 12.2 | 0.00 | 0.00 | 0.00 | 57 | 1014.7 |
| 20260905190553 | 89 | 80 | 5.2 | 13.9 | 0.00 | 0.00 | 0.00 | 58 | 1014.8 |
| 20260905190053 | 89 | 92 | 9.6 | 13.9 | 0.00 | 0.00 | 0.00 | 58 | 1014.9 |
| 20260905185553 | 89 | 131 | 2.6 | 13.0 | 0.00 | 0.00 | 0.00 | 63 | 1015.1 |
| 20260905185051 | 89 | 123 | 6.1 | 13.0 | 0.00 | 0.00 | 0.00 | 62 | 1015.3 |
| 20260905184551 | 88 | 124 | 7.8 | 13.0 | 0.00 | 0.00 | 0.00 | 63 | 1015.6 |